Year,Month,Day,Hour,Minute,Value (Times are PST for windgust in km/hr)
2016,07,23,00,00,22.50
2016,07,23,00,01,12.90
2016,07,23,00,02,14.50
2016,07,23,00,03,11.30
2016,07,23,00,04,16.10
2016,07,23,00,05,16.10
2016,07,23,00,06,14.50
2016,07,23,00,07,11.30
2016,07,23,00,08,14.50
2016,07,23,00,09,17.70
2016,07,23,00,10,14.50
2016,07,23,00,11,14.50
2016,07,23,00,12,19.30
2016,07,23,00,13,22.50
2016,07,23,00,14,17.70
2016,07,23,00,15,22.50
2016,07,23,00,16,14.50
2016,07,23,00,17,16.10
2016,07,23,00,18,14.50
2016,07,23,00,19,17.70
2016,07,23,00,20,20.90
2016,07,23,00,21,16.10
2016,07,23,00,22,25.70
2016,07,23,00,23,24.20
2016,07,23,00,24,16.10
2016,07,23,00,25,16.10
2016,07,23,00,26,20.90
2016,07,23,00,27,20.90
2016,07,23,00,28,16.10
2016,07,23,00,29,19.30
2016,07,23,00,30,19.30
2016,07,23,00,31,17.70
2016,07,23,00,32,20.90
2016,07,23,00,33,20.90
2016,07,23,00,34,20.90
2016,07,23,00,35,20.90
2016,07,23,00,36,25.70
2016,07,23,00,37,24.20
2016,07,23,00,38,22.50
2016,07,23,00,39,17.70
2016,07,23,00,40,20.90
2016,07,23,00,41,20.90
2016,07,23,00,42,20.90
2016,07,23,00,43,19.30
2016,07,23,00,44,17.70
2016,07,23,00,45,25.70
2016,07,23,00,46,22.50
2016,07,23,00,47,19.30
2016,07,23,00,48,19.30
2016,07,23,00,49,25.70
2016,07,23,00,50,20.90
2016,07,23,00,51,25.70
2016,07,23,00,52,19.30
2016,07,23,00,53,27.40
2016,07,23,00,54,24.20
2016,07,23,00,55,19.30
2016,07,23,00,56,20.90
2016,07,23,00,57,20.90
2016,07,23,00,58,17.70
2016,07,23,00,59,20.90
2016,07,23,01,00,22.50
2016,07,23,01,01,17.70
2016,07,23,01,02,19.30
2016,07,23,01,03,19.30
2016,07,23,01,04,22.50
2016,07,23,01,05,17.70
2016,07,23,01,06,19.30
2016,07,23,01,07,17.70
2016,07,23,01,08,17.70
2016,07,23,01,09,19.30
2016,07,23,01,10,20.90
2016,07,23,01,11,17.70
2016,07,23,01,12,22.50
2016,07,23,01,13,20.90
2016,07,23,01,14,22.50
2016,07,23,01,15,22.50
2016,07,23,01,16,20.90
2016,07,23,01,17,16.10
2016,07,23,01,18,19.30
2016,07,23,01,19,22.50
2016,07,23,01,20,17.70
2016,07,23,01,21,22.50
2016,07,23,01,22,22.50
2016,07,23,01,23,20.90
2016,07,23,01,24,29.00
2016,07,23,01,25,22.50
2016,07,23,01,26,20.90
2016,07,23,01,27,24.20
2016,07,23,01,28,19.30
2016,07,23,01,29,20.90
2016,07,23,01,30,20.90
2016,07,23,01,31,20.90
2016,07,23,01,32,19.30
2016,07,23,01,33,24.20
2016,07,23,01,34,22.50
2016,07,23,01,35,25.70
2016,07,23,01,36,24.20
2016,07,23,01,37,17.70
2016,07,23,01,38,24.20
2016,07,23,01,39,17.70
2016,07,23,01,40,24.20
2016,07,23,01,41,22.50
2016,07,23,01,42,20.90
2016,07,23,01,43,20.90
2016,07,23,01,44,24.20
2016,07,23,01,45,20.90
2016,07,23,01,46,30.60
2016,07,23,01,47,27.40
2016,07,23,01,48,25.70
2016,07,23,01,49,24.20
2016,07,23,01,50,24.20
2016,07,23,01,51,27.40
2016,07,23,01,52,25.70
2016,07,23,01,53,22.50
2016,07,23,01,54,20.90
2016,07,23,01,55,22.50
2016,07,23,01,56,22.50
2016,07,23,01,57,17.70
2016,07,23,01,58,24.20
2016,07,23,01,59,24.20
2016,07,23,02,00,27.40
2016,07,23,02,01,20.90
2016,07,23,02,02,27.40
2016,07,23,02,03,22.50
2016,07,23,02,04,22.50
2016,07,23,02,05,24.20
2016,07,23,02,06,25.70
2016,07,23,02,07,20.90
2016,07,23,02,08,24.20
2016,07,23,02,09,20.90
2016,07,23,02,10,24.20
2016,07,23,02,11,17.70
2016,07,23,02,12,19.30
2016,07,23,02,13,19.30
2016,07,23,02,14,11.30
2016,07,23,02,15,16.10
2016,07,23,02,16,16.10
2016,07,23,02,17,14.50
2016,07,23,02,18,19.30
2016,07,23,02,19,16.10
2016,07,23,02,20,14.50
2016,07,23,02,21,20.90
2016,07,23,02,22,16.10
2016,07,23,02,23,16.10
2016,07,23,02,24,12.90
2016,07,23,02,25,14.50
2016,07,23,02,26,14.50
2016,07,23,02,27,11.30
2016,07,23,02,28,14.50
2016,07,23,02,29,12.90
2016,07,23,02,30,9.60
2016,07,23,02,31,12.90
2016,07,23,02,32,12.90
2016,07,23,02,33,16.10
2016,07,23,02,34,17.70
2016,07,23,02,35,11.30
2016,07,23,02,36,14.50
2016,07,23,02,37,16.10
2016,07,23,02,38,14.50
2016,07,23,02,39,16.10
2016,07,23,02,40,9.60
2016,07,23,02,41,12.90
2016,07,23,02,42,11.30
2016,07,23,02,43,8.10
2016,07,23,02,44,8.10
2016,07,23,02,45,11.30
2016,07,23,02,46,11.30
2016,07,23,02,47,6.40
2016,07,23,02,48,12.90
2016,07,23,02,49,9.60
2016,07,23,02,50,9.60
2016,07,23,02,51,11.30
2016,07,23,02,52,8.10
2016,07,23,02,53,6.40
2016,07,23,02,54,6.40
2016,07,23,02,55,3.20
2016,07,23,02,56,8.10
2016,07,23,02,57,8.10
2016,07,23,02,58,8.10
2016,07,23,02,59,6.40
2016,07,23,03,00,8.10
2016,07,23,03,01,6.40
2016,07,23,03,02,11.30
2016,07,23,03,03,11.30
2016,07,23,03,04,9.60
2016,07,23,03,05,11.30
2016,07,23,03,06,6.40
2016,07,23,03,07,4.80
2016,07,23,03,08,6.40
2016,07,23,03,09,6.40
2016,07,23,03,10,6.40
2016,07,23,03,11,4.80
2016,07,23,03,12,3.20
2016,07,23,03,13,6.40
2016,07,23,03,14,8.10
2016,07,23,03,15,3.20
2016,07,23,03,16,4.80
2016,07,23,03,17,6.40
2016,07,23,03,18,8.10
2016,07,23,03,19,8.10
2016,07,23,03,20,8.10
2016,07,23,03,21,6.40
2016,07,23,03,22,4.80
2016,07,23,03,23,4.80
2016,07,23,03,25,3.20
2016,07,23,03,26,3.20
2016,07,23,03,27,1.60
2016,07,23,03,28,4.80
2016,07,23,03,29,4.80
2016,07,23,03,30,6.40
2016,07,23,03,31,8.10
2016,07,23,03,32,8.10
2016,07,23,03,33,1.60
2016,07,23,03,34,1.60
2016,07,23,03,36,1.60
2016,07,23,03,37,6.40
2016,07,23,03,38,8.10
2016,07,23,03,39,4.80
2016,07,23,03,40,6.40
2016,07,23,03,41,3.20
2016,07,23,03,42,6.40
2016,07,23,03,43,3.20
2016,07,23,03,44,3.20
2016,07,23,03,46,3.20
2016,07,23,03,49,6.40
2016,07,23,03,50,3.20
2016,07,23,03,51,3.20
2016,07,23,03,52,6.40
2016,07,23,03,53,6.40
2016,07,23,03,54,1.60
2016,07,23,03,55,4.80
2016,07,23,03,56,6.40
2016,07,23,03,57,4.80
2016,07,23,03,58,1.60
2016,07,23,03,59,8.10
2016,07,23,04,00,6.40
2016,07,23,04,01,6.40
2016,07,23,04,02,3.20
2016,07,23,04,03,9.60
2016,07,23,04,04,6.40
2016,07,23,04,05,3.20
2016,07,23,04,06,4.80
2016,07,23,04,07,3.20
2016,07,23,04,08,11.30
2016,07,23,04,09,11.30
2016,07,23,04,10,8.10
2016,07,23,04,11,4.80
2016,07,23,04,13,1.60
2016,07,23,04,17,3.20
2016,07,23,04,18,8.10
2016,07,23,04,22,4.80
2016,07,23,04,23,3.20
2016,07,23,04,24,3.20
2016,07,23,04,25,8.10
2016,07,23,04,26,6.40
2016,07,23,04,27,8.10
2016,07,23,04,28,4.80
2016,07,23,04,29,3.20
2016,07,23,04,30,6.40
2016,07,23,04,31,8.10
2016,07,23,04,33,1.60
2016,07,23,04,34,8.10
2016,07,23,04,35,4.80
2016,07,23,04,36,11.30
2016,07,23,04,37,6.40
2016,07,23,04,38,4.80
2016,07,23,04,40,4.80
2016,07,23,04,41,6.40
2016,07,23,04,42,1.60
2016,07,23,04,43,3.20
2016,07,23,04,44,3.20
2016,07,23,04,45,3.20
2016,07,23,04,46,3.20
2016,07,23,04,52,1.60
2016,07,23,04,56,3.20
2016,07,23,04,57,4.80
2016,07,23,04,58,4.80
2016,07,23,04,59,4.80
2016,07,23,05,00,6.40
2016,07,23,05,01,3.20
2016,07,23,05,02,1.60
2016,07,23,05,03,1.60
2016,07,23,05,04,1.60
2016,07,23,05,05,1.60
2016,07,23,05,06,3.20
2016,07,23,05,07,8.10
2016,07,23,05,08,6.40
2016,07,23,05,09,3.20
2016,07,23,05,11,1.60
2016,07,23,05,13,4.80
2016,07,23,05,14,6.40
2016,07,23,05,15,8.10
2016,07,23,05,16,8.10
2016,07,23,05,17,6.40
2016,07,23,05,18,6.40
2016,07,23,05,19,9.60
2016,07,23,05,20,6.40
2016,07,23,05,21,6.40
2016,07,23,05,22,4.80
2016,07,23,05,23,6.40
2016,07,23,05,24,6.40
2016,07,23,05,25,8.10
2016,07,23,05,26,8.10
2016,07,23,05,27,9.60
2016,07,23,05,28,9.60
2016,07,23,05,29,4.80
2016,07,23,05,30,8.10
2016,07,23,05,31,8.10
2016,07,23,05,32,4.80
2016,07,23,05,33,11.30
2016,07,23,05,34,9.60
2016,07,23,05,35,9.60
2016,07,23,05,36,11.30
2016,07,23,05,37,6.40
2016,07,23,05,38,1.60
2016,07,23,05,39,1.60
2016,07,23,05,41,4.80
2016,07,23,05,42,4.80
2016,07,23,05,43,6.40
2016,07,23,05,44,4.80
2016,07,23,05,45,1.60
2016,07,23,05,47,1.60
2016,07,23,05,49,1.60
2016,07,23,05,50,8.10
2016,07,23,05,51,9.60
2016,07,23,05,52,9.60
2016,07,23,05,53,9.60
2016,07,23,05,54,8.10
2016,07,23,05,55,6.40
2016,07,23,05,56,8.10
2016,07,23,05,57,4.80
2016,07,23,05,58,3.20
2016,07,23,05,59,4.80
2016,07,23,06,01,6.40
2016,07,23,06,02,4.80
2016,07,23,06,03,1.60
2016,07,23,06,05,6.40
2016,07,23,06,06,8.10
2016,07,23,06,07,9.60
2016,07,23,06,08,1.60
2016,07,23,06,09,1.60
2016,07,23,06,10,3.20
2016,07,23,06,11,1.60
2016,07,23,06,13,8.10
2016,07,23,06,14,14.50
2016,07,23,06,15,8.10
2016,07,23,06,16,8.10
2016,07,23,06,17,8.10
2016,07,23,06,18,9.60
2016,07,23,06,19,3.20
2016,07,23,06,20,8.10
2016,07,23,06,21,4.80
2016,07,23,06,22,3.20
2016,07,23,06,23,1.60
2016,07,23,06,24,4.80
2016,07,23,06,25,8.10
2016,07,23,06,26,8.10
2016,07,23,06,27,1.60
2016,07,23,06,28,3.20
2016,07,23,06,29,9.60
2016,07,23,06,30,6.40
2016,07,23,06,31,9.60
2016,07,23,06,32,8.10
2016,07,23,06,33,8.10
2016,07,23,06,34,12.90
2016,07,23,06,35,9.60
2016,07,23,06,36,11.30
2016,07,23,06,37,6.40
2016,07,23,06,38,9.60
2016,07,23,06,39,4.80
2016,07,23,06,40,6.40
2016,07,23,06,41,6.40
2016,07,23,06,42,4.80
2016,07,23,06,43,6.40
2016,07,23,06,44,8.10
2016,07,23,06,45,3.20
2016,07,23,06,46,1.60
2016,07,23,06,47,3.20
2016,07,23,06,48,8.10
2016,07,23,06,49,9.60
2016,07,23,06,50,9.60
2016,07,23,06,51,6.40
2016,07,23,06,52,8.10
2016,07,23,06,53,4.80
2016,07,23,06,54,6.40
2016,07,23,06,55,3.20
2016,07,23,06,56,4.80
2016,07,23,06,57,8.10
2016,07,23,06,58,11.30
2016,07,23,06,59,8.10
2016,07,23,07,00,6.40
2016,07,23,07,01,6.40
2016,07,23,07,02,8.10
2016,07,23,07,03,9.60
2016,07,23,07,04,8.10
2016,07,23,07,05,9.60
2016,07,23,07,06,9.60
2016,07,23,07,07,4.80
2016,07,23,07,08,6.40
2016,07,23,07,09,6.40
2016,07,23,07,10,9.60
2016,07,23,07,11,11.30
2016,07,23,07,12,14.50
2016,07,23,07,13,9.60
2016,07,23,07,14,11.30
2016,07,23,07,15,12.90
2016,07,23,07,16,14.50
2016,07,23,07,17,16.10
2016,07,23,07,18,8.10
2016,07,23,07,19,8.10
2016,07,23,07,20,6.40
2016,07,23,07,21,9.60
2016,07,23,07,22,11.30
2016,07,23,07,23,4.80
2016,07,23,07,24,11.30
2016,07,23,07,25,14.50
2016,07,23,07,26,16.10
2016,07,23,07,27,4.80
2016,07,23,07,28,1.60
2016,07,23,07,29,4.80
2016,07,23,07,30,1.60
2016,07,23,07,31,8.10
2016,07,23,07,32,1.60
2016,07,23,07,33,6.40
2016,07,23,07,34,3.20
2016,07,23,07,36,6.40
2016,07,23,07,37,8.10
2016,07,23,07,38,3.20
2016,07,23,07,39,8.10
2016,07,23,07,40,8.10
2016,07,23,07,41,6.40
2016,07,23,07,42,6.40
2016,07,23,07,43,6.40
2016,07,23,07,44,8.10
2016,07,23,07,45,6.40
2016,07,23,07,46,6.40
2016,07,23,07,47,8.10
2016,07,23,07,48,8.10
2016,07,23,07,49,4.80
2016,07,23,07,50,9.60
2016,07,23,07,51,9.60
2016,07,23,07,52,8.10
2016,07,23,07,53,4.80
2016,07,23,07,54,6.40
2016,07,23,07,55,8.10
2016,07,23,07,56,8.10
2016,07,23,07,57,3.20
2016,07,23,07,58,6.40
2016,07,23,07,59,4.80
2016,07,23,08,00,3.20
2016,07,23,08,01,1.60
2016,07,23,08,02,6.40
2016,07,23,08,03,6.40
2016,07,23,08,04,8.10
2016,07,23,08,05,3.20
2016,07,23,08,06,6.40
2016,07,23,08,07,9.60
2016,07,23,08,08,9.60
2016,07,23,08,09,6.40
2016,07,23,08,10,4.80
2016,07,23,08,11,6.40
2016,07,23,08,12,1.60
2016,07,23,08,13,3.20
2016,07,23,08,14,6.40
2016,07,23,08,15,6.40
2016,07,23,08,16,8.10
2016,07,23,08,17,6.40
2016,07,23,08,18,1.60
2016,07,23,08,19,1.60
2016,07,23,08,20,1.60
2016,07,23,08,21,4.80
2016,07,23,08,22,9.60
2016,07,23,08,23,8.10
2016,07,23,08,24,8.10
2016,07,23,08,25,4.80
2016,07,23,08,26,1.60
2016,07,23,08,27,6.40
2016,07,23,08,28,8.10
2016,07,23,08,29,17.70
2016,07,23,08,30,9.60
2016,07,23,08,31,4.80
2016,07,23,08,32,3.20
2016,07,23,08,33,6.40
2016,07,23,08,34,11.30
2016,07,23,08,35,14.50
2016,07,23,08,36,11.30
2016,07,23,08,37,4.80
2016,07,23,08,38,3.20
2016,07,23,08,39,9.60
2016,07,23,08,40,6.40
2016,07,23,08,41,6.40
2016,07,23,08,42,1.60
2016,07,23,08,43,1.60
2016,07,23,08,44,8.10
2016,07,23,08,45,8.10
2016,07,23,08,46,8.10
2016,07,23,08,47,4.80
2016,07,23,08,48,4.80
2016,07,23,08,49,1.60
2016,07,23,08,50,3.20
2016,07,23,08,51,3.20
2016,07,23,08,52,8.10
2016,07,23,08,53,8.10
2016,07,23,08,54,8.10
2016,07,23,08,55,9.60
2016,07,23,08,56,9.60
2016,07,23,08,57,6.40
2016,07,23,08,58,8.10
2016,07,23,09,00,1.60
2016,07,23,09,01,3.20
2016,07,23,09,02,4.80
2016,07,23,09,03,8.10
2016,07,23,09,04,4.80
2016,07,23,09,05,3.20
2016,07,23,09,06,8.10
2016,07,23,09,07,8.10
2016,07,23,09,08,8.10
2016,07,23,09,09,9.60
2016,07,23,09,10,8.10
2016,07,23,09,11,6.40
2016,07,23,09,12,1.60
2016,07,23,09,13,6.40
2016,07,23,09,14,9.60
2016,07,23,09,15,9.60
2016,07,23,09,16,8.10
2016,07,23,09,17,8.10
2016,07,23,09,18,6.40
2016,07,23,09,19,8.10
2016,07,23,09,20,8.10
2016,07,23,09,21,9.60
2016,07,23,09,22,8.10
2016,07,23,09,23,1.60
2016,07,23,09,24,1.60
2016,07,23,09,25,4.80
2016,07,23,09,26,6.40
2016,07,23,09,28,4.80
2016,07,23,09,29,9.60
2016,07,23,09,30,8.10
2016,07,23,09,31,8.10
2016,07,23,09,32,3.20
2016,07,23,09,33,3.20
2016,07,23,09,34,4.80
2016,07,23,09,35,8.10
2016,07,23,09,36,4.80
2016,07,23,09,37,8.10
2016,07,23,09,38,6.40
2016,07,23,09,39,3.20
2016,07,23,09,40,4.80
2016,07,23,09,41,4.80
2016,07,23,09,42,4.80
2016,07,23,09,43,6.40
2016,07,23,09,44,3.20
2016,07,23,09,45,1.60
2016,07,23,09,46,3.20
2016,07,23,09,47,3.20
2016,07,23,09,48,9.60
2016,07,23,09,49,9.60
2016,07,23,09,50,9.60
2016,07,23,09,51,11.30
2016,07,23,09,52,11.30
2016,07,23,09,53,11.30
2016,07,23,09,54,12.90
2016,07,23,09,55,9.60
2016,07,23,09,56,14.50
2016,07,23,09,57,16.10
2016,07,23,09,58,9.60
2016,07,23,09,59,8.10
2016,07,23,10,00,8.10
2016,07,23,10,01,11.30
2016,07,23,10,02,14.50
2016,07,23,10,03,11.30
2016,07,23,10,04,14.50
2016,07,23,10,05,14.50
2016,07,23,10,06,12.90
2016,07,23,10,07,12.90
2016,07,23,10,08,11.30
2016,07,23,10,09,9.60
2016,07,23,10,10,14.50
2016,07,23,10,11,8.10
2016,07,23,10,12,16.10
2016,07,23,10,13,16.10
2016,07,23,10,14,11.30
2016,07,23,10,15,9.60
2016,07,23,10,16,11.30
2016,07,23,10,17,8.10
2016,07,23,10,18,12.90
2016,07,23,10,19,8.10
2016,07,23,10,20,14.50
2016,07,23,10,21,12.90
2016,07,23,10,22,11.30
2016,07,23,10,23,9.60
2016,07,23,10,24,11.30
2016,07,23,10,25,11.30
2016,07,23,10,26,14.50
2016,07,23,10,27,8.10
2016,07,23,10,28,12.90
2016,07,23,10,29,16.10
2016,07,23,10,30,16.10
2016,07,23,10,31,17.70
2016,07,23,10,32,19.30
2016,07,23,10,33,17.70
2016,07,23,10,34,17.70
2016,07,23,10,35,17.70
2016,07,23,10,36,17.70
2016,07,23,10,37,14.50
2016,07,23,10,38,11.30
2016,07,23,10,39,11.30
2016,07,23,10,40,9.60
2016,07,23,10,41,9.60
2016,07,23,10,42,16.10
2016,07,23,10,43,14.50
2016,07,23,10,44,17.70
2016,07,23,10,45,12.90
2016,07,23,10,46,19.30
2016,07,23,10,47,16.10
2016,07,23,10,48,17.70
2016,07,23,10,49,14.50
2016,07,23,10,50,9.60
2016,07,23,10,51,17.70
2016,07,23,10,52,16.10
2016,07,23,10,53,14.50
2016,07,23,10,54,16.10
2016,07,23,10,55,17.70
2016,07,23,10,56,16.10
2016,07,23,10,57,14.50
2016,07,23,10,58,9.60
2016,07,23,10,59,9.60
2016,07,23,11,00,16.10
2016,07,23,11,01,17.70
2016,07,23,11,02,17.70
2016,07,23,11,03,17.70
2016,07,23,11,04,16.10
2016,07,23,11,05,14.50
2016,07,23,11,06,9.60
2016,07,23,11,07,11.30
2016,07,23,11,08,17.70
2016,07,23,11,09,17.70
2016,07,23,11,10,19.30
2016,07,23,11,11,19.30
2016,07,23,11,12,17.70
2016,07,23,11,13,12.90
2016,07,23,11,14,17.70
2016,07,23,11,15,17.70
2016,07,23,11,16,14.50
2016,07,23,11,17,19.30
2016,07,23,11,18,11.30
2016,07,23,11,19,16.10
2016,07,23,11,20,19.30
2016,07,23,11,21,16.10
2016,07,23,11,22,22.50
2016,07,23,11,23,19.30
2016,07,23,11,24,17.70
2016,07,23,11,25,19.30
2016,07,23,11,26,24.20
2016,07,23,11,27,17.70
2016,07,23,11,28,14.50
2016,07,23,11,29,9.60
2016,07,23,11,30,9.60
2016,07,23,11,31,19.30
2016,07,23,11,32,19.30
2016,07,23,11,33,19.30
2016,07,23,11,34,17.70
2016,07,23,11,35,17.70
2016,07,23,11,36,16.10
2016,07,23,11,37,17.70
2016,07,23,11,38,16.10
2016,07,23,11,39,19.30
2016,07,23,11,40,16.10
2016,07,23,11,41,12.90
2016,07,23,11,42,19.30
2016,07,23,11,43,11.30
2016,07,23,11,44,12.90
2016,07,23,11,45,8.10
2016,07,23,11,46,14.50
2016,07,23,11,47,11.30
2016,07,23,11,48,14.50
2016,07,23,11,49,16.10
2016,07,23,11,50,16.10
2016,07,23,11,51,17.70
2016,07,23,11,52,19.30
2016,07,23,11,53,20.90
2016,07,23,11,54,17.70
2016,07,23,11,55,19.30
2016,07,23,11,56,14.50
2016,07,23,11,57,16.10
2016,07,23,11,58,16.10
2016,07,23,11,59,20.90
2016,07,23,12,00,17.70
2016,07,23,12,01,16.10
2016,07,23,12,02,16.10
2016,07,23,12,03,20.90
2016,07,23,12,04,16.10
2016,07,23,12,05,16.10
2016,07,23,12,06,9.60
2016,07,23,12,07,11.30
2016,07,23,12,08,19.30
2016,07,23,12,09,17.70
2016,07,23,12,10,14.50
2016,07,23,12,11,17.70
2016,07,23,12,12,14.50
2016,07,23,12,13,6.40
2016,07,23,12,14,17.70
2016,07,23,12,15,16.10
2016,07,23,12,16,14.50
2016,07,23,12,17,17.70
2016,07,23,12,18,17.70
2016,07,23,12,19,11.30
2016,07,23,12,20,9.60
2016,07,23,12,21,6.40
2016,07,23,12,22,6.40
2016,07,23,12,23,11.30
2016,07,23,12,24,17.70
2016,07,23,12,25,17.70
2016,07,23,12,26,17.70
2016,07,23,12,27,16.10
2016,07,23,12,28,19.30
2016,07,23,12,29,20.90
2016,07,23,12,30,20.90
2016,07,23,12,31,20.90
2016,07,23,12,32,12.90
2016,07,23,12,33,12.90
2016,07,23,12,34,11.30
2016,07,23,12,35,19.30
2016,07,23,12,36,17.70
2016,07,23,12,37,20.90
2016,07,23,12,38,20.90
2016,07,23,12,39,17.70
2016,07,23,12,40,17.70
2016,07,23,12,41,19.30
2016,07,23,12,42,25.70
2016,07,23,12,43,19.30
2016,07,23,12,44,17.70
2016,07,23,12,45,24.20
2016,07,23,12,46,22.50
2016,07,23,12,47,24.20
2016,07,23,12,48,22.50
2016,07,23,12,49,22.50
2016,07,23,12,50,20.90
2016,07,23,12,51,17.70
2016,07,23,12,52,17.70
2016,07,23,12,53,19.30
2016,07,23,12,54,17.70
2016,07,23,12,55,12.90
2016,07,23,12,56,9.60
2016,07,23,12,57,19.30
2016,07,23,12,58,22.50
2016,07,23,12,59,20.90
2016,07,23,13,00,20.90
2016,07,23,13,01,19.30
2016,07,23,13,02,19.30
2016,07,23,13,03,19.30
2016,07,23,13,04,19.30
2016,07,23,13,05,14.50
2016,07,23,13,06,16.10
2016,07,23,13,07,19.30
2016,07,23,13,08,19.30
2016,07,23,13,09,20.90
2016,07,23,13,10,14.50
2016,07,23,13,11,17.70
2016,07,23,13,12,20.90
2016,07,23,13,13,16.10
2016,07,23,13,14,19.30
2016,07,23,13,15,11.30
2016,07,23,13,16,9.60
2016,07,23,13,17,11.30
2016,07,23,13,18,16.10
2016,07,23,13,19,16.10
2016,07,23,13,20,17.70
2016,07,23,13,21,16.10
2016,07,23,13,22,19.30
2016,07,23,13,23,19.30
2016,07,23,13,24,22.50
2016,07,23,13,25,22.50
2016,07,23,13,26,17.70
2016,07,23,13,27,16.10
2016,07,23,13,28,14.50
2016,07,23,13,29,16.10
2016,07,23,13,30,17.70
2016,07,23,13,31,16.10
2016,07,23,13,32,16.10
2016,07,23,13,33,17.70
2016,07,23,13,34,14.50
2016,07,23,13,35,17.70
2016,07,23,13,36,14.50
2016,07,23,13,37,19.30
2016,07,23,13,38,9.60
2016,07,23,13,39,4.80
2016,07,23,13,40,9.60
2016,07,23,13,41,16.10
2016,07,23,13,42,16.10
2016,07,23,13,43,17.70
2016,07,23,13,44,25.70
2016,07,23,13,45,25.70
2016,07,23,13,46,20.90
2016,07,23,13,47,22.50
2016,07,23,13,48,11.30
2016,07,23,13,49,17.70
2016,07,23,13,50,19.30
2016,07,23,13,51,20.90
2016,07,23,13,52,22.50
2016,07,23,13,53,22.50
2016,07,23,13,54,19.30
2016,07,23,13,55,17.70
2016,07,23,13,56,4.80
2016,07,23,13,57,16.10
2016,07,23,13,58,19.30
2016,07,23,13,59,19.30
2016,07,23,14,00,16.10
2016,07,23,14,01,14.50
2016,07,23,14,02,16.10
2016,07,23,14,03,19.30
2016,07,23,14,04,19.30
2016,07,23,14,05,22.50
2016,07,23,14,06,22.50
2016,07,23,14,07,20.90
2016,07,23,14,08,16.10
2016,07,23,14,09,24.20
2016,07,23,14,10,20.90
2016,07,23,14,11,20.90
2016,07,23,14,12,25.70
2016,07,23,14,13,25.70
2016,07,23,14,14,22.50
2016,07,23,14,15,24.20
2016,07,23,14,16,19.30
2016,07,23,14,17,24.20
2016,07,23,14,18,17.70
2016,07,23,14,19,11.30
2016,07,23,14,20,20.90
2016,07,23,14,21,17.70
2016,07,23,14,22,8.10
2016,07,23,14,23,11.30
2016,07,23,14,24,16.10
2016,07,23,14,25,9.60
2016,07,23,14,26,11.30
2016,07,23,14,27,19.30
2016,07,23,14,28,25.70
2016,07,23,14,29,22.50
2016,07,23,14,30,25.70
2016,07,23,14,31,19.30
2016,07,23,14,32,16.10
2016,07,23,14,33,22.50
2016,07,23,14,34,20.90
2016,07,23,14,35,19.30
2016,07,23,14,36,22.50
2016,07,23,14,37,22.50
2016,07,23,14,38,24.20
2016,07,23,14,39,20.90
2016,07,23,14,40,24.20
2016,07,23,14,41,22.50
2016,07,23,14,42,22.50
2016,07,23,14,43,14.50
2016,07,23,14,44,6.40
2016,07,23,14,45,11.30
2016,07,23,14,46,16.10
2016,07,23,14,47,19.30
2016,07,23,14,48,16.10
2016,07,23,14,49,22.50
2016,07,23,14,50,17.70
2016,07,23,14,51,25.70
2016,07,23,14,52,29.00
2016,07,23,14,53,17.70
2016,07,23,14,54,19.30
2016,07,23,14,55,16.10
2016,07,23,14,56,22.50
2016,07,23,14,57,17.70
2016,07,23,14,58,12.90
2016,07,23,14,59,8.10
2016,07,23,15,00,17.70
2016,07,23,15,01,6.40
2016,07,23,15,02,22.50
2016,07,23,15,03,24.20
2016,07,23,15,04,19.30
2016,07,23,15,05,16.10
2016,07,23,15,06,16.10
2016,07,23,15,07,14.50
2016,07,23,15,08,11.30
2016,07,23,15,09,19.30
2016,07,23,15,10,19.30
2016,07,23,15,11,17.70
2016,07,23,15,12,12.90
2016,07,23,15,13,16.10
2016,07,23,15,14,17.70
2016,07,23,15,15,20.90
2016,07,23,15,16,24.20
2016,07,23,15,17,25.70
2016,07,23,15,18,22.50
2016,07,23,15,19,17.70
2016,07,23,15,20,12.90
2016,07,23,15,21,17.70
2016,07,23,15,22,8.10
2016,07,23,15,23,17.70
2016,07,23,15,24,19.30
2016,07,23,15,25,16.10
2016,07,23,15,26,20.90
2016,07,23,15,27,17.70
2016,07,23,15,28,14.50
2016,07,23,15,29,9.60
2016,07,23,15,30,16.10
2016,07,23,15,31,22.50
2016,07,23,15,32,22.50
2016,07,23,15,33,6.40
2016,07,23,15,34,6.40
2016,07,23,15,35,20.90
2016,07,23,15,36,17.70
2016,07,23,15,37,19.30
2016,07,23,15,38,17.70
2016,07,23,15,39,16.10
2016,07,23,15,40,24.20
2016,07,23,15,41,19.30
2016,07,23,15,42,19.30
2016,07,23,15,43,24.20
2016,07,23,15,44,20.90
2016,07,23,15,45,17.70
2016,07,23,15,46,17.70
2016,07,23,15,47,16.10
2016,07,23,15,48,20.90
2016,07,23,15,49,27.40
2016,07,23,15,50,25.70
2016,07,23,15,51,27.40
2016,07,23,15,52,24.20
2016,07,23,15,53,24.20
2016,07,23,15,54,24.20
2016,07,23,15,55,24.20
2016,07,23,15,56,24.20
2016,07,23,15,57,22.50
2016,07,23,15,58,32.20
2016,07,23,15,59,30.60
2016,07,23,16,00,25.70
2016,07,23,16,01,24.20
2016,07,23,16,02,22.50
2016,07,23,16,03,27.40
2016,07,23,16,04,29.00
2016,07,23,16,05,24.20
2016,07,23,16,06,19.30
2016,07,23,16,07,27.40
2016,07,23,16,08,25.70
2016,07,23,16,09,27.40
2016,07,23,16,10,30.60
2016,07,23,16,11,25.70
2016,07,23,16,12,25.70
2016,07,23,16,13,25.70
2016,07,23,16,14,22.50
2016,07,23,16,15,24.20
2016,07,23,16,16,24.20
2016,07,23,16,17,24.20
2016,07,23,16,18,24.20
2016,07,23,16,19,22.50
2016,07,23,16,20,17.70
2016,07,23,16,21,20.90
2016,07,23,16,22,27.40
2016,07,23,16,23,20.90
2016,07,23,16,24,20.90
2016,07,23,16,25,22.50
2016,07,23,16,26,25.70
2016,07,23,16,27,29.00
2016,07,23,16,28,20.90
2016,07,23,16,29,29.00
2016,07,23,16,30,25.70
2016,07,23,16,31,19.30
2016,07,23,16,32,22.50
2016,07,23,16,33,24.20
2016,07,23,16,34,20.90
2016,07,23,16,35,19.30
2016,07,23,16,36,22.50
2016,07,23,16,37,24.20
2016,07,23,16,38,19.30
2016,07,23,16,39,19.30
2016,07,23,16,40,22.50
2016,07,23,16,41,24.20
2016,07,23,16,42,24.20
2016,07,23,16,43,20.90
2016,07,23,16,44,24.20
2016,07,23,16,45,22.50
2016,07,23,16,46,19.30
2016,07,23,16,47,22.50
2016,07,23,16,48,24.20
2016,07,23,16,49,20.90
2016,07,23,16,50,16.10
2016,07,23,16,51,19.30
2016,07,23,16,52,24.20
2016,07,23,16,53,20.90
2016,07,23,16,54,24.20
2016,07,23,16,55,22.50
2016,07,23,16,56,16.10
2016,07,23,16,57,20.90
2016,07,23,16,58,27.40
2016,07,23,16,59,22.50
2016,07,23,17,00,22.50
2016,07,23,17,01,20.90
2016,07,23,17,02,20.90
2016,07,23,17,03,17.70
2016,07,23,17,04,24.20
2016,07,23,17,05,24.20
2016,07,23,17,06,20.90
2016,07,23,17,07,25.70
2016,07,23,17,08,19.30
2016,07,23,17,09,19.30
2016,07,23,17,10,17.70
2016,07,23,17,11,20.90
2016,07,23,17,12,17.70
2016,07,23,17,13,19.30
2016,07,23,17,14,22.50
2016,07,23,17,15,24.20
2016,07,23,17,16,24.20
2016,07,23,17,17,20.90
2016,07,23,17,18,20.90
2016,07,23,17,19,17.70
2016,07,23,17,20,20.90
2016,07,23,17,21,19.30
2016,07,23,17,22,20.90
2016,07,23,17,23,19.30
2016,07,23,17,24,14.50
2016,07,23,17,25,17.70
2016,07,23,17,26,22.50
2016,07,23,17,27,22.50
2016,07,23,17,28,16.10
2016,07,23,17,29,20.90
2016,07,23,17,30,22.50
2016,07,23,17,31,20.90
2016,07,23,17,32,19.30
2016,07,23,17,33,14.50
2016,07,23,17,34,19.30
2016,07,23,17,35,19.30
2016,07,23,17,36,17.70
2016,07,23,17,37,19.30
2016,07,23,17,38,19.30
2016,07,23,17,39,19.30
2016,07,23,17,40,20.90
2016,07,23,17,41,17.70
2016,07,23,17,42,17.70
2016,07,23,17,43,19.30
2016,07,23,17,44,20.90
2016,07,23,17,45,19.30
2016,07,23,17,46,20.90
2016,07,23,17,47,19.30
2016,07,23,17,48,17.70
2016,07,23,17,49,17.70
2016,07,23,17,50,16.10
2016,07,23,17,51,20.90
2016,07,23,17,52,20.90
2016,07,23,17,53,17.70
2016,07,23,17,54,16.10
2016,07,23,17,55,12.90
2016,07,23,17,56,14.50
2016,07,23,17,57,16.10
2016,07,23,17,58,19.30
2016,07,23,17,59,24.20
2016,07,23,18,00,20.90
2016,07,23,18,01,20.90
2016,07,23,18,02,17.70
2016,07,23,18,03,30.60
2016,07,23,18,04,20.90
2016,07,23,18,05,17.70
2016,07,23,18,06,19.30
2016,07,23,18,07,16.10
2016,07,23,18,08,11.30
2016,07,23,18,09,14.50
2016,07,23,18,10,19.30